Lapse_Rate
7.6 7.6 7.3 7.2 7.6 7.7 7.8 7.9 8.0 7.8 7.4 6.1 4.8 4.2 3.9 4.4 4.5 4.9 5.4 5.5 5.7 5.9 6.1 6.2 6.2 5.8 7.0 8.1 8.0 7.2 6.7 6.9 7.3 7.3 7.4 8.2 7.8 7.4 6.5 6.9 7.1 6.5 6.8 7.2 7.5 7.4 7.5
7.8 8.0 7.9 7.6 7.7 7.7 7.9 7.8 8.3 7.9 6.8 4.5 4.3 3.8 3.7 4.0 4.2 4.3 5.1 5.5 5.9 6.1 6.1 6.3 6.0 5.8 8.6 6.9 7.7 7.7 7.1 7.6 7.4 9.0 8.7 8.7 8.0 8.2 7.3 7.0 6.6 7.1 7.0 7.0 7.3 7.3 7.4
8.1 7.7 8.0 8.2 7.7 7.4 7.5 7.6 7.8 8.0 6.0 4.5 4.0 3.6 3.8 3.7 4.0 4.1 4.9 5.6 6.0 6.1 6.1 6.3 5.9 7.9 8.5 7.7 8.7 8.1 7.6 7.2 7.2 7.9 8.4 8.4 8.8 7.9 7.7 6.8 7.7 7.2 6.5 6.6 6.9 7.1 6.8
8.1 8.1 8.2 8.0 7.7 7.8 7.5 7.6 7.7 7.7 6.1 4.1 3.8 3.6 3.6 3.6 3.9 4.0 4.8 5.5 5.9 6.0 6.3 6.3 5.9 8.8 7.7 6.8 9.5 8.4 8.7 7.8 7.7 7.9 7.4 8.0 9.0 8.2 7.6 7.9 7.1 6.5 6.5 6.5 6.5 6.8 7.0
8.3 8.3 8.0 7.4 7.3 7.6 7.7 7.4 7.5 7.2 6.4 4.0 3.9 3.6 3.8 4.3 4.4 4.4 4.7 5.3 5.8 6.2 6.2 6.0 8.0 8.7 7.3 6.6 8.2 8.7 9.4 8.8 7.5 8.1 8.2 8.4 8.7 7.6 7.5 6.5 6.5 6.5 6.5 6.5 6.5 6.9 6.6
8.2 8.0 7.9 7.1 6.6 5.7 5.8 7.1 7.2 7.1 6.1 4.4 3.7 3.7 4.2 4.9 5.1 5.1 5.2 5.8 5.9 6.0 7.3 8.4 8.5 7.8 7.0 7.9 8.5 8.6 8.5 8.4 8.5 8.4 8.1 7.9 7.5 6.5 6.5 6.5 6.5 6.5 6.5 6.5 6.5 6.5 6.5
8.1 8.2 7.5 6.8 6.7 6.1 5.2 5.0 5.9 6.5 5.8 4.6 4.4 4.7 4.6 4.9 5.1 5.4 5.5 7.6 8.5 8.1 8.4 7.6 7.7 7.7 8.1 8.7 8.5 8.8 8.4 8.6 8.5 7.8 6.5 7.2 6.5 6.5 6.5 6.5 6.5 6.5 6.5 6.5 6.5 6.5 6.5
5.9 5.8 4.9 5.3 5.4 5.4 4.9 4.6 4.8 5.7 5.5 4.4 5.0 5.2 4.9 5.2 5.4 5.4 8.5 8.5 7.1 6.5 7.0 7.6 7.7 8.0 8.6 8.9 7.6 8.4 8.3 7.6 7.2 6.5 6.7 6.5 6.5 6.5 6.5 6.5 6.5 6.5 6.5 6.5 6.5 6.5 6.5
3.9 4.8 4.1 3.7 4.1 4.1 4.0 4.2 4.6 4.7 4.6 4.0 4.6 4.6 4.7 5.5 4.9 5.9 8.7 7.7 5.7 6.5 7.1 7.4 8.2 8.0 8.0 7.9 7.4 7.6 8.4 7.8 6.8 6.5 6.5 6.5 6.5 6.7 6.5 6.5 6.5 6.5 6.5 6.5 6.5 6.5 6.5
4.0 3.7 3.3 3.3 3.5 3.6 3.3 3.1 3.4 3.7 3.6 3.9 3.7 4.1 4.8 5.1 5.7 8.6 7.9 5.9 5.5 6.4 6.5 6.5 6.9 7.7 8.0 8.2 7.0 8.6 8.7 7.8 6.8 6.5 6.5 6.5 6.7 6.5 6.5 6.5 6.5 6.5 6.5 6.5 6.5 6.5 6.5
3.6 3.8 3.7 3.7 3.8 3.3 3.2 2.8 2.9 3.1 3.0 3.3 3.5 3.9 4.4 4.4 7.4 7.7 5.8 5.0 5.7 7.7 6.5 6.5 6.9 8.1 8.4 7.2 7.4 7.5 8.3 7.9 6.5 6.5 6.5 6.5 6.5 6.5 6.5 6.5 6.5 6.5 6.5 6.5 6.5 6.5 6.5
3.6 3.5 3.6 3.9 3.6 3.5 3.5 2.9 2.5 2.8 2.8 3.1 2.9 3.8 4.2 5.3 6.5 5.3 4.8 5.3 6.8 6.5 6.5 6.5 6.9 6.6 6.7 7.1 7.1 7.7 7.6 8.2 7.7 6.5 6.5 6.5 7.2 6.6 6.5 6.5 6.5 6.5 6.5 6.5 6.5 6.5 6.5
3.9 3.8 3.7 3.6 3.6 3.5 3.5 3.3 2.9 2.5 2.6 2.8 2.8 3.3 4.6 6.1 8.3 4.9 5.3 7.4 6.5 6.5 6.5 6.5 6.5 6.5 6.5 6.5 6.5 6.6 6.5 6.5 6.5 6.5 6.5 6.5 6.5 6.6 6.9 6.5 6.5 6.5 6.5 6.5 6.5 6.5 6.5
3.9 3.9 4.0 3.8 3.7 3.8 3.8 3.4 3.4 2.9 2.5 2.6 3.0 3.4 3.6 5.3 5.2 5.3 6.7 6.7 6.5 6.5 6.5 6.5 6.5 6.5 6.5 6.5 6.5 6.5 6.5 6.5 6.5 6.5 6.5 6.5 6.5 6.5 6.5 6.5 6.5 6.5 6.5 6.5 6.5 6.5 6.5
4.0 4.0 4.0 4.0 4.1 4.2 4.2 4.1 3.6 3.2 2.7 2.6 2.5 5.8 6.9 5.4 5.2 6.3 7.8 6.5 6.5 6.5 6.5 6.5 6.5 6.5 6.5 6.5 6.5 6.5 6.5 6.5 6.5 6.5 6.5 6.5 6.5 6.5 6.5 6.6 6.5 6.5 6.5 6.5 6.5 6.5 6.5
4.3 4.3 4.4 4.4 4.4 4.6 4.7 4.8 4.2 4.0 3.3 3.1 6.8 7.3 8.3 4.8 5.6 7.5 6.7 6.5 6.5 6.6 6.6 6.5 6.5 6.5 6.5 6.5 6.5 6.5 6.5 6.5 6.5 6.6 6.5 6.5 6.5 6.5 6.5 6.8 6.6 6.5 6.5 6.5 6.5 6.5 6.5
4.7 4.6 4.4 4.3 4.4 4.6 4.8 5.0 4.9 4.6 4.2 3.8 8.4 7.9 5.4 5.5 6.7 7.8 6.5 6.5 6.5 7.1 7.1 6.5 6.5 6.5 6.5 6.5 6.5 6.5 6.5 6.5 6.5 6.5 6.8 6.5 6.5 6.5 6.5 6.5 6.5 6.5 6.5 6.5 6.5 6.5 6.5
5.1 5.0 5.0 4.7 4.6 4.6 4.6 4.8 4.8 5.0 4.5 4.5 8.5 6.6 6.0 7.2 7.1 7.1 6.5 6.5 6.6 6.7 7.2 6.5 6.6 6.5 6.5 6.5 6.5 6.5 6.5 6.5 7.1 6.8 6.5 6.5 6.5 6.5 6.5 6.5 6.5 6.5 6.5 6.5 6.5 6.5 6.5
5.5 5.5 5.3 5.2 5.1 4.9 4.9 5.2 5.5 5.7 4.6 7.3 7.5 7.7 6.7 7.4 6.5 6.5 6.6 6.5 6.8 6.5 6.5 6.5 6.5 6.5 6.5 6.5 6.5 6.5 6.5 6.9 7.1 6.6 6.5 6.5 6.5 6.5 6.5 6.5 6.5 6.5 6.5 6.5 6.5 6.5 6.5
6.3 6.2 5.8 5.8 5.4 5.1 5.0 5.0 5.5 6.6 6.3 7.0 6.8 6.5 7.8 8.1 7.7 6.6 6.5 6.5 6.5 7.0 6.6 6.8 6.5 6.6 6.5 6.5 6.5 6.5 6.5 6.5 7.0 6.8 7.0 6.6 6.5 6.5 6.5 6.5 6.5 6.5 6.5 6.5 6.5 6.5 6.5
5.7 6.2 6.0 6.1 6.2 6.0 5.9 5.5 5.6 6.4 7.3 5.8 6.4 6.7 7.3 6.5 6.6 6.5 6.5 6.5 6.5 6.5 6.8 6.9 6.5 6.5 6.5 6.5 6.5 6.5 6.5 6.5 6.7 7.0 6.8 6.5 6.5 6.5 6.5 6.5 6.5 6.5 6.5 6.5 6.5 6.5 6.5
5.1 5.2 5.5 5.5 5.3 5.4 5.3 5.2 5.3 5.5 6.4 5.9 5.9 6.6 6.7 7.0 7.0 6.5 6.5 6.5 6.5 6.5 6.5 6.5 6.5 6.5 6.5 6.5 6.5 6.5 6.5 6.5 6.5 6.5 6.5 6.5 6.5 6.5 6.5 6.5 6.5 6.5 6.5 6.5 6.5 6.5 6.5
4.9 5.1 4.7 5.1 5.2 5.2 5.4 5.2 5.1 4.8 5.5 6.2 6.7 5.9 5.8 6.8 6.6 6.5 6.5 6.5 6.5 6.5 6.8 7.0 6.6 6.5 6.5 6.5 6.9 7.0 6.8 6.4 6.5 6.5 6.5 6.5 6.5 6.5 6.5 6.5 6.5 6.5 6.5 6.5 6.5 6.5 6.5
5.6 5.7 5.7 6.1 6.5 6.1 5.7 5.9 6.8 6.0 4.8 5.7 6.2 5.6 5.8 6.5 6.5 6.5 6.5 6.6 6.5 6.5 6.5 6.8 6.9 6.4 6.9 7.3 5.4 5.8 6.2 6.2 6.4 6.5 6.7 6.5 6.5 6.5 6.5 6.5 6.5 6.5 6.5 6.5 6.5 6.5 6.5
6.7 6.3 5.9 6.5 6.6 6.2 6.5 6.7 6.9 6.1 5.6 5.4 5.4 5.6 5.1 6.5 6.6 6.5 6.5 6.5 6.8 6.9 6.6 6.5 7.1 7.1 5.9 5.6 6.5 6.5 6.5 6.5 6.5 6.5 6.5 6.5 6.5 6.5 6.5 6.5 6.5 6.5 6.5 6.5 6.5 6.5 6.5
8.4 8.6 8.5 8.4 8.6 8.4 7.4 7.1 6.8 6.5 6.3 6.3 5.9 6.0 5.4 6.3 6.5 7.1 6.6 6.8 6.5 6.5 6.5 6.8 8.0 8.1 4.5 6.5 6.5 6.5 6.5 6.5 6.5 6.5 6.5 6.5 6.5 6.5 6.5 6.5 6.5 6.5 6.5 6.5 6.5 6.5 6.5
8.8 8.8 8.9 8.8 8.6 8.6 8.5 8.5 8.7 8.0 7.3 7.7 7.2 6.0 5.8 5.6 7.1 7.6 6.5 6.5 6.5 6.6 6.5 6.6 6.8 5.7 5.9 6.5 6.5 6.5 6.5 6.5 6.5 6.5 6.5 6.5 6.5 6.5 6.5 6.5 6.5 6.5 6.5 5.7 6.5 6.5 6.1
9.3 9.0 8.5 8.5 8.6 8.2 8.1 8.2 8.5 8.5 8.5 8.5 7.6 8.6 6.7 4.9 7.1 7.9 7.9 7.1 6.0 6.2 6.5 6.3 6.0 6.2 6.5 6.5 6.5 6.5 6.5 6.5 6.5 6.5 6.5 6.5 6.5 6.5 6.5 6.5 6.5 6.6 6.7 6.5 6.5 4.4 4.9
9.1 9.2 9.2 9.3 9.2 8.7 8.5 8.5 8.8 8.4 8.1 8.0 7.6 8.5 8.1 6.2 6.5 8.3 8.6 8.6 8.3 7.7 6.4 6.0 6.3 6.6 6.6 6.5 6.5 6.5 6.5 6.5 6.5 6.5 6.5 6.5 6.5 6.5 6.5 6.5 6.5 6.4 6.0 5.5 3.1 6.2 5.7
Wind_Speed
10 9 10 9 7 8 8 9 10 9 7 6 4 2 2 3 4 5 6 6 7 7 7 7 7 6 7 2 4 5 4 8 6 6 9 5 7 2 6 5 5 6 2 2 2 4 8
6 7 9 8 8 7 7 8 10 8 8 6 3 2 1 4 5 6 7 6 7 7 6 7 5 5 7 3 3 3 4 5 8 7 9 10 6 6 7 4 2 2 2 5 3 5 6
5 5 5 6 7 8 8 7 8 9 7 5 4 2 3 3 6 7 8 7 7 7 6 7 4 6 2 5 3 3 3 6 6 6 7 8 5 2 3 6 3 1 3 4 7 5 4
3 3 3 4 5 6 8 8 7 8 9 7 5 3 2 3 5 10 10 10 8 7 7 5 5 7 2 2 4 4 4 6 7 7 8 5 6 6 2 4 4 3 2 2 8 4 1
0 2 3 3 4 5 6 8 7 6 7 7 5 4 3 4 8 11 13 12 10 9 8 4 5 5 2 4 4 4 1 3 5 5 4 3 2 2 3 1 2 3 4 3 3 7 3
2 2 3 1 3 3 3 6 8 6 6 6 4 2 3 6 10 13 16 15 14 12 5 3 1 4 4 4 6 5 4 4 2 4 2 1 0 1 1 1 2 4 5 3 7 5 9
3 3 3 2 2 2 4 4 6 6 5 6 3 3 4 7 11 14 19 8 5 4 6 2 0 4 7 7 7 5 3 4 4 3 2 2 2 3 2 3 2 4 7 11 13 3 7
4 4 2 3 4 3 3 3 5 6 6 7 5 3 6 10 13 14 6 4 4 4 3 4 2 4 6 5 4 7 5 5 4 3 2 3 6 2 5 5 1 3 8 11 9 2 6
3 2 3 1 0 0 1 1 2 5 6 6 5 6 8 10 11 6 6 1 1 3 4 4 6 4 3 7 2 11 10 3 6 6 6 7 3 6 4 4 2 6 8 9 8 13 16
1 2 2 2 1 1 2 2 1 2 5 6 6 7 11 15 5 4 5 7 2 2 4 7 5 4 6 4 5 3 7 3 4 3 3 7 5 5 4 4 6 4 4 3 7 8 6
3 2 2 2 2 1 2 2 2 0 2 3 6 6 15 15 4 4 4 6 4 3 4 8 5 3 6 6 8 5 2 4 5 3 3 2 5 7 6 5 9 1 2 3 6 9 10
6 6 5 4 4 4 2 3 2 1 1 2 4 7 13 4 2 4 8 8 3 4 6 6 6 8 8 8 5 5 5 2 2 3 9 12 1 4 3 6 5 6 1 2 2 2 4
10 9 8 8 7 6 4 3 2 1 1 2 4 13 10 1 1 10 11 4 4 5 4 6 5 8 12 9 10 9 8 8 6 4 8 6 10 3 7 5 5 3 2 3 3 3 4
12 11 11 11 10 9 7 5 4 3 1 1 3 14 3 1 7 12 5 4 8 4 5 4 4 9 8 12 6 9 6 7 16 8 3 6 6 11 10 4 4 8 2 3 6 7 8
14 13 13 13 12 12 11 9 6 4 3 2 9 5 3 4 9 6 5 6 6 4 6 11 8 8 9 8 3 9 10 6 5 18 11 7 5 6 2 2 1 7 6 2 4 1 6
17 16 16 15 15 15 14 12 9 7 5 6 4 4 4 8 7 5 5 7 7 1 6 7 8 13 9 11 9 10 10 6 6 14 2 3 3 7 5 4 2 3 5 3 3 5 8
20 19 18 18 17 17 16 15 12 10 7 6 4 4 4 9 5 5 6 8 6 5 8 8 7 7 9 7 12 9 6 7 10 11 10 4 3 8 7 11 11 6 5 5 3 4 5
22 22 21 21 20 20 19 18 17 14 11 7 3 4 4 7 7 6 10 6 2 6 7 6 4 7 9 9 8 11 10 9 13 13 11 9 4 8 11 3 1 10 8 12 6 8 5
26 26 25 24 23 22 22 22 21 20 22 4 3 3 3 4 7 12 9 5 7 8 7 7 8 9 6 7 4 13 6 5 13 12 11 10 6 3 5 2 2 7 10 14 7 1 15
28 27 26 26 25 24 24 24 25 26 27 4 4 5 3 6 9 7 11 12 12 8 6 6 3 4 3 6 11 3 6 3 9 9 4 9 6 9 15 4 6 7 13 20 15 8 11
31 30 28 29 28 29 29 29 30 30 30 6 3 5 6 7 10 17 9 5 11 8 7 8 5 13 7 6 5 9 10 3 6 9 7 9 9 15 21 19 13 12 12 19 26 27 15
11 10 24 30 31 30 31 30 31 30 29 6 4 3 3 3 9 15 18 12 20 12 9 8 11 11 13 12 13 6 7 9 8 13 11 7 5 6 18 16 18 22 21 22 27 26 26
13 13 14 14 14 12 17 28 33 36 27 4 5 2 3 7 7 8 9 17 13 10 13 22 16 13 14 25 18 18 14 8 7 14 16 10 7 5 10 5 1 14 24 27 27 20 25
14 15 13 12 15 14 10 12 14 23 36 7 4 3 4 6 11 16 17 18 21 20 18 14 17 13 6 2 3 3 9 11 12 15 15 10 12 6 5 6 8 14 3 11 21 24 27
16 16 15 17 17 15 15 14 14 13 10 11 4 5 5 6 10 17 18 20 19 17 22 21 20 13 9 5 3 5 5 4 12 23 20 17 11 6 6 13 13 19 8 8 9 17 22
16 16 17 18 19 19 19 19 16 14 12 6 7 4 3 3 13 13 12 21 18 16 17 23 18 12 7 4 4 7 9 10 6 5 6 17 15 9 10 8 12 20 5 4 6 11 12
18 18 18 18 19 19 19 19 19 20 18 9 5 9 5 4 14 16 7 8 5 10 7 7 7 6 12 8 10 11 12 7 11 10 7 6 10 20 21 16 8 14 10 7 6 14 4
21 19 18 18 20 20 18 18 19 20 19 10 8 10 10 3 15 15 15 15 4 6 8 3 3 2 5 9 7 9 9 14 14 23 11 15 12 10 12 10 14 9 9 11 10 3 2
20 20 21 21 22 22 21 22 23 21 20 20 11 8 8 7 8 13 13 19 25 18 8 7 3 5 7 5 4 4 5 4 16 17 19 13 15 12 13 8 3 16 7 16 2 4 5
Wind_Direction
62 57 57 61 56 67 72 77 78 75 83 77 93 115 127 162 171 184 181 185 189 193 195 198 197 219 269 136 89 95 28 11 17 14 25 17 47 63 121 112 117 100 169 227 255 271 267
59 54 49 57 47 56 72 78 83 78 73 67 63 76 146 168 176 186 186 190 188 187 197 200 197 246 258 221 94 91 34 31 24 25 35 46 59 63 90 89 70 75 258 275 277 257 264
64 52 58 41 42 47 60 79 83 81 73 54 59 58 140 169 182 175 181 183 180 176 193 191 208 256 265 92 109 92 80 49 25 22 66 43 18 316 123 128 124 108 285 201 228 227 273
71 90 68 39 42 36 54 55 67 75 70 65 40 62 102 139 166 170 167 170 168 168 176 175 263 259 68 109 122 127 124 72 62 64 75 52 45 76 56 124 174 216 215 282 147 200 187
75 95 89 22 56 26 38 46 51 71 70 53 50 57 94 120 139 152 158 159 154 155 148 185 237 274 139 136 185 112 57 100 85 81 77 67 19 67 167 270 219 201 295 281 254 185 280
53 97 79 44 85 54 26 33 36 51 62 46 67 56 130 135 126 133 137 140 131 135 176 200 271 238 160 196 140 128 96 123 99 130 144 283 206 149 172 198 310 310 302 282 278 177 244
39 62 74 19 44 37 46 15 14 27 45 22 22 141 167 155 147 142 129 128 156 169 219 243 356 63 134 108 139 168 138 157 149 237 291 45 269 241 344 223 344 319 293 287 291 352 297
50 59 50 39 55 52 46 13 345 8 26 11 7 177 179 166 157 162 200 261 18 9 198 188 122 99 129 171 142 167 177 212 213 235 121 231 238 72 104 120 202 270 292 289 297 29 287
47 66 107 78 113 210 131 46 351 359 12 7 1 166 172 170 146 188 233 169 102 300 258 153 200 185 169 187 239 178 189 204 229 237 232 254 38 131 134 159 193 251 259 295 291 316 271
20 14 23 153 210 191 142 126 26 18 2 3 24 156 160 147 175 173 223 153 155 301 266 148 190 168 152 191 207 126 200 256 207 273 255 261 103 194 203 220 199 277 17 270 285 321 307
248 254 263 288 320 205 151 129 146 10 9 9 23 165 166 177 96 198 87 144 158 226 284 127 146 113 156 197 129 155 177 181 240 184 161 97 178 191 215 224 169 359 21 304 300 286 316
255 244 245 244 261 278 220 182 120 225 327 345 12 172 162 211 224 107 138 139 189 218 251 159 138 168 159 193 161 134 176 203 2 248 227 263 41 245 259 110 186 111 308 260 270 274 246
262 258 250 245 239 241 249 201 183 199 288 300 338 168 186 220 46 149 152 172 226 238 127 165 182 176 197 180 190 194 178 185 194 184 203 183 213 138 158 154 154 157 254 273 226 208 279
252 253 253 249 244 242 242 244 240 177 153 322 66 155 169 32 147 154 185 208 231 284 185 102 140 172 194 165 207 195 202 237 221 221 268 242 223 182 185 209 205 188 248 259 279 290 305
255 252 249 247 245 244 242 234 241 198 164 166 152 173 177 138 158 186 210 218 229 228 115 154 151 197 199 200 223 192 219 240 197 187 195 196 183 106 128 134 252 150 205 43 294 199 278
253 251 251 248 244 242 239 235 231 217 188 195 195 188 155 154 164 201 222 246 246 163 139 172 219 190 199 183 190 196 194 171 209 196 97 159 209 191 132 153 126 236 127 131 199 260 263
254 252 247 243 240 237 234 228 224 216 203 217 214 219 115 162 184 200 226 232 261 199 189 204 245 231 223 183 205 194 233 166 185 177 190 154 221 134 152 205 180 166 209 210 293 249 254
255 251 249 243 236 231 226 224 215 204 175 189 234 228 140 187 189 202 225 210 275 203 206 240 276 250 221 209 213 224 225 222 145 148 172 197 214 221 216 119 6 239 226 184 215 194 233
252 249 244 240 238 230 225 219 211 198 181 168 207 140 163 226 223 220 216 251 236 201 205 198 220 223 218 214 217 223 221 59 155 172 164 170 198 221 200 189 193 221 210 220 254 297 238
250 246 246 243 238 231 224 218 212 204 197 208 166 175 160 215 259 269 230 239 233 209 236 207 209 141 167 217 235 284 207 152 189 205 170 162 202 229 254 316 116 204 210 204 199 227 245
247 248 246 244 238 233 225 218 214 206 199 166 206 221 185 188 229 222 208 251 235 223 216 200 217 215 175 206 221 232 220 175 196 214 190 174 242 227 256 274 270 253 227 200 210 224 222
346 301 257 243 238 232 229 225 218 208 195 193 185 186 192 286 220 208 214 215 233 222 175 217 226 200 192 219 209 214 195 202 213 187 187 199 250 244 269 247 246 256 251 231 219 229 239
304 309 310 313 316 311 266 234 220 208 182 178 181 189 159 192 193 190 201 219 230 217 238 241 227 231 201 228 232 240 233 209 203 172 190 186 210 189 258 95 173 269 242 235 233 225 220
286 288 290 289 287 293 306 307 292 242 194 182 180 134 176 221 207 213 225 215 227 220 229 236 224 226 240 60 80 311 252 248 211 208 182 189 191 199 248 138 231 254 147 213 225 233 216
280 281 282 283 279 278 279 276 271 275 281 216 172 171 174 232 217 230 240 239 242 235 237 242 242 216 145 111 207 235 200 252 232 229 212 200 183 211 227 223 270 300 224 178 180 247 223
286 283 283 279 276 272 271 273 270 270 272 251 208 214 162 190 236 244 234 228 239 241 249 245 242 231 131 183 202 222 230 225 206 223 215 211 214 211 216 231 233 245 129 133 140 254 179
281 281 280 282 285 277 275 272 268 267 270 266 257 202 223 233 261 251 234 245 194 217 246 240 204 191 179 204 224 228 236 234 224 224 169 194 204 219 232 244 243 260 155 152 238 263 153
277 276 274 278 281 282 278 277 277 273 265 256 268 247 236 250 267 238 238 241 229 219 222 136 121 193 187 215 222 226 234 236 227 234 210 192 183 214 235 247 250 133 126 199 232 99 212
285 283 275 272 270 271 271 270 266 268 267 260 259 254 254 245 270 290 256 245 249 243 223 185 233 203 200 211 231 260 243 241 248 247 228 234 215 225 199 218 150 188 222 221 92 157 186